Location: Newark
(47.4167°N, 6.3667°E)
Time: 12:59:06
(UTC+00:00)

Envisat - Visible Passes

Search period start: 16 September 2019 00:00
Search period end: 26 September 2019 00:00
Orbit: 764 x 766 km, 98.1° (Epoch: 16 September)

Date Brightness Start Highest point End Pass type
(mag) Time Alt. Az. Time Alt. Az. Time Alt. Az.
16 Sep 5.2 18:34:15 10° SSW 18:38:40 30° W 18:43:07 10° NNW visible
18 Sep 5.9 19:01:01 10° SW 19:04:27 18° W 19:07:53 10° NW visible
19 Sep 4.8 18:22:40 10° SSW 18:27:20 36° W 18:32:02 10° NNW visible
20 Sep 6.4 19:29:38 10° W 19:30:19 10° W 19:31:01 10° WNW visible
21 Sep 5.6 18:49:09 10° SW 18:53:04 22° W 18:57:00 10° NW visible
22 Sep 4.3 18:11:10 10° S 18:16:00 45° W 18:20:55 10° NNW visible
23 Sep 6.1 19:16:32 10° WSW 19:18:54 13° W 19:21:17 10° WNW visible
24 Sep 5.3 18:37:24 10° SSW 18:41:42 27° W 18:46:01 10° NW visible
25 Sep 3.8 17:59:44 10° S 18:04:43 56° W 18:09:44 10° NNW visible
